STARLINK-4534, 53395

Orbit data source: Space-Track

STARLINK-4534, 53395 is a payload satellite owned by SpaceX/Seattle (US) in LEO that was launched on Wed, 10 Aug 2022 UTC via an FALCON 9 launch vehicle from the Air Force Eastern Test Range (AFETR). Payload-class satellites include a variety of spacecraft equipped with specific instruments for various scientific and technological missions. These include communications satellites like Starlink; space stations such as the ISS; scientific satellites like the Hubble; Earth observation satellites from companies like Planet Labs, Umbra, and HawkEye 360; GPS; miniature CubeSats for education and research; and military/defense satellites.

Loading next visibility...
Identifier
53395, 2022-097H
Orbit
LEO
Country
Flag of USUS
Related business
Manufacturer
SpaceX/Seattle
Mission
Operational Commercial Communications
Bus & Motor
STARLINK, Unknown motor
Mass
297 kg wet, ~275 kg dry
Launch date (UTC)
2022-08-10 (4 years ago)
Launch vehicle
FALCON 9
Launch site
Air Force Eastern Test Range (AFETR)
Object type
Payload
Rocket body
Debris
Shape & HBR
Box + 1 Pan, 10.1 m
Radar Cross Section
13.562 m², Large (>1 m²)

Expand to show TLE details & history
Last TLE update: 21 hours ago

TLE from 21 hours ago
0 STARLINK-4534
1 53395U 22097H   26144.14974796  .00007411  00000-0  48383-3 0  9991
2 53395  53.2144 145.3771 0001905  70.3401 289.7796 15.08795925209903
Epoch: 2026-05-24T03:35Z
TLE epoch observation values (Epoch: 2026-05-24T03:35:38.223Z)
Latitude
-0.00008°
Longitude
-150.28825°
Altitude
540.33 km
Speed
7.594 km/s
True Right ascension
09h 41m 30s
True Declination
0° 00' 00"
Sunlit
Object was in daylight at epoch
Visualization orbit readout
Latitude
Unknown
Longitude
Unknown
Altitude
Unknown
Speed
Unknown
Apparent Right ascension
Unknown
Apparent Declination
Unknown
Sunlit
N/A
Visualization observer readout
Local Sidereal Time
09:25:21
Azimuth
Unknown
Elevation
Unknown
Doppler factor
Unknown
Orbital elements
Apogee altitude
541.441 km
Perigee altitude
538.806 km
Semi-major axis
6,918.261 km
Eccentricity
0.00019
Inclination
53.2144°
RAAN
145.3771°
Arg. of periapsis
70.3401°
True anomaly
289.75906°
Mean anomaly
289.7796°
Eccentric anomaly
289.76933°
Mean motion
3.77179 °/min
Orbital period
95.45 mins
BSTAR
0.00048383
Loading maneuver chart data...
Computing Atmospheric mass density...
Loading historical data...
Loading historical data...
Loading historical data...
Loading historical data...
Loading historical data...
Loading historical data...
Loading historical data...

Documentation

Showing up to 5 results
|